Flag for Brazil Weather past 2 weeks in São Paulo, São Paulo, Brazil

Now
61 °F

Cloudy.


Feels Like: 61 °F
Forecast: 58 / 61 °F
Wind: 13 mph from Southeast

Location: Sao Paulo Airport

Current Time: Jul 28, 2014 at 3:00:10 PM

Latest Report: Jul 28, 2014 at 2:00 PM


Visibility: N/A

Pressure: 30.42 "Hg

Humidity: 77%

Dew point: 54 °F

Location of São PauloLocation

Historic Weather in São Paulo — Graph

°F

São Paulo temperature yesterday

Maximum temperature yesterday: 59 °F (at 11:00 AM)
Minimum temperature yesterday: 55 °F (at 4:00 AM)
Average temperature yesterday: 57 °F

Past Weeks' High & Low Weather Summary

 TemperatureHumidityPressure
High79 °F (Jul 17, 2:00 PM)94% (Jul 26, 9:00 PM)30.48 "Hg (Jul 26, 9:00 PM)
Low52 °F (Jul 20, 6:00 AM)24% (Jul 23, 4:00 PM)29.98 "Hg (Jul 24, 1:00 PM)
Average61 °F69%30.24 "Hg
* Reported Jul 13 2:00 PM — Jul 28 2:00 PM, São Paulo, Weather by CustomWeather, © 2014

Note: Actual official high and low records may vary slightly from our data, if they occured in-between our weather recording intervals... More about our weather records

Advertising

São Paulo weather history for previous 24 hours

 ConditionsComfort  
Time TempWeatherWind HumidityBarometerVisibility
2:00 PM
Jul 28
61 °FCloudy.13 mph77%30.42 "HgN/A
1:00 PM61 °FCloudy.12 mph77%30.42 "HgN/A
12:00 PM59 °FCloudy.10 mph82%30.45 "HgN/A
11:00 AM61 °FCloudy.10 mph77%30.45 "HgN/A
10:00 AM59 °FMostly cloudy.9 mph77%30.48 "HgN/A
9:00 AM57 °FPartly sunny.10 mph82%30.45 "HgN/A
8:00 AM57 °FCloudy.10 mph82%30.45 "HgN/A
7:00 AM57 °FMore clouds than sun.10 mph82%30.42 "HgN/A
6:00 AM57 °FLow clouds.9 mph82%30.39 "Hg5 mi
5:00 AM57 °FFog.9 mph82%30.39 "Hg3 mi
4:00 AM57 °FMostly cloudy.8 mph82%30.39 "HgN/A
3:00 AM57 °FMostly cloudy.9 mph82%30.39 "HgN/A
2:00 AM55 °FMostly cloudy.12 mph88%30.39 "HgN/A
1:00 AM57 °FFog.13 mph82%30.39 "Hg2 mi
12:00 AM57 °FMostly cloudy.10 mph88%30.42 "HgN/A
11:00 PM
Jul 27
57 °FMostly cloudy.9 mph88%30.42 "HgN/A
10:00 PM57 °FMostly cloudy.9 mph88%30.42 "HgN/A
9:00 PM57 °FMostly cloudy.9 mph88%30.39 "HgN/A
8:00 PM57 °FMostly cloudy.10 mph82%30.39 "HgN/A
7:00 PM57 °FMostly cloudy.10 mph82%30.36 "HgN/A
6:00 PM57 °FMostly cloudy.10 mph88%30.36 "HgN/A
5:00 PM57 °FMostly cloudy.10 mph88%30.33 "HgN/A
4:00 PM57 °FMostly cloudy.10 mph88%30.33 "HgN/A
3:00 PM57 °FMostly cloudy.8 mph88%30.33 "HgN/A
Weather by CustomWeather, © 2014

See weather overviewHow to use our weather pages